Location: Knowlton
(51.2333°N, 1.2667°E)
Time: 04:13:36
(UTC+00:00)

Cosmos 1627 Rocket - Pass Details

Date: 18 April 2021
Orbit: 950 x 1005 km, 82.9° (Epoch: 06 May)

Event Time Altitude Azimuth Distance (km) Brightness Sun altitude
Rises 19:49:28 0° 350° (N) 3,637 8.1 -8.4°
Reaches altitude 10° 19:51:57 10° 351° (N) 2,689 7.4 -8.7°
Maximum altitude 19:58:07 85° 79° (E) 967 4.5 -9.5°
Drops below altitude 10° 20:04:18 10° 170° (S) 2,694 6.4 -10.4°
Sets 20:06:48 0° 171° (S) 3,644 7.1 -10.7°
